Regional Weather Roundup
Issued by NWS

Home | Current Version | Previous Version | Graphics & Text | Print | Product List | Glossary On
Versions: 1 2 3 4 5 6 7 8 9 10 11 12 13 14 15 16 17 18 19 20 21 22 23 24 25 26 27 28 29 30 31 32 33 34 35 36 37 38 39 40 41 42 43 44 45 46 47 48 49 50
000
ASUS43 KLSX 061159
RWRMO

WEATHER SUMMARY FOR MISSOURI
NATIONAL WEATHER SERVICE SPRINGFIELD MO
700 AM CDT MON JUL 06 2015

NOTE: "FAIR" INDICATES FEW OR NO CLOUDS BELOW 12,000 FEET WITH NO
       SIGNIFICANT WEATHER AND/OR OBSTRUCTIONS TO VISIBILITY.
       CURRENT SKY AND/OR WEATHER CONDITIONS ARE NOT AVAILABLE FOR
       CHILLICOTHE AND FARMINGTON.

MOZ001>031-035>038-043-044-053-054-061300-
...NORTHERN AND WESTERN MISSOURI...

CITY           SKY/WX    TMP DP  RH WIND       PRES   REMARKS
KANSAS CTY INT CLOUDY    74  70  87 S10       29.90R
6HR MIN TEMP:  73; 6HR MAX TEMP:  79;

KANSAS C DTWN  CLOUDY    77  70  79 S9        29.90R
6HR MIN TEMP:  75; 6HR MAX TEMP:  79;

LEE`S SUMMIT   CLOUDY    74  69  85 S9        29.93R
6HR MIN TEMP:  73; 6HR MAX TEMP:  75;

ST JOSEPH      CLOUDY    77  72  84 S9        29.89R
6HR MIN TEMP:  76; 6HR MAX TEMP:  81;

CHILLICOTHE      N/A     74  69  85 S6        29.91S
6HR MIN TEMP:  74; 6HR MAX TEMP:  78;

KIRKSVILLE     CLOUDY    73  68  84 S8        29.93S
6HR MIN TEMP:  72; 6HR MAX TEMP:  75;


$$
MOZ066>068-077>081-088>096-101>105-061300-
...SOUTHWEST MISSOURI...

CITY           SKY/WX    TMP DP  RH WIND       PRES   REMARKS
SPRINGFIELD    MOSUNNY   72  70  93 S12       30.01R
6HR MIN TEMP:  71; 6HR MAX TEMP:  72;

JOPLIN         MOCLDY    75  71  87 S14       29.98R
6HR MIN TEMP:  73; 6HR MAX TEMP:  75;


$$
MOZ032>034-039>042-045>050-055>058-069>072-061300-
...CENTRAL MISSOURI...

CITY           SKY/WX    TMP DP  RH WIND       PRES   REMARKS
COLUMBIA       PTSUNNY   74  72  93 S10       29.98R
6HR MIN TEMP:  72; 6HR MAX TEMP:  74;

JEFFERSON CITY PTSUNNY   75  72  90 SE5       29.97R
6HR MIN TEMP:  73; 6HR MAX TEMP:  76;

ROLLA          PTSUNNY   73  71  93 S9        30.00R
6HR MIN TEMP:  72; 6HR MAX TEMP:  73;

SEDALIA        MOSUNNY   74  68  81 S12       29.97R
6HR MIN TEMP:  73; 6HR MAX TEMP:  75;

OSAGE BEACH    PTSUNNY   73  70  88 S6        29.99R

$$
MOZ051-052-059>065-061300-
...EAST CENTRAL MISSOURI...

CITY           SKY/WX    TMP DP  RH WIND       PRES   REMARKS
ST LOUIS INTL  PTSUNNY   76  70  82 S8        30.01R HAZE
6HR MIN TEMP:  74; 6HR MAX TEMP:  78;

SPIRIT OF STL  MOSUNNY   74  72  93 CALM      30.00R
6HR MIN TEMP:  70; 6HR MAX TEMP:  75;

ST CHARLES     MOSUNNY   73  71  93 E3        30.00R FOG
6HR MIN TEMP:  70; 6HR MAX TEMP:  74;


$$
MOZ072>076-082>087-097>100-106>115-061300-
...SOUTH CENTRAL AND SOUTHEAST MISSOURI...

CITY           SKY/WX    TMP DP  RH WIND       PRES   REMARKS
CAPE GIRARDEAU CLOUDY    74  72  93 S7        30.07R
6HR MIN TEMP:  72; 6HR MAX TEMP:  74;

FARMINGTON     CLOUDY    72  72 100 S6        30.08S
6HR MIN TEMP:  70; 6HR MAX TEMP:  73;

POPLAR BLUFF   CLOUDY    73  71  93 S7        30.06R
6HR MIN TEMP:  73; 6HR MAX TEMP:  75;

WEST PLAINS    CLOUDY    71  69  93 S6        30.07R FOG
6HR MIN TEMP:  70; 6HR MAX TEMP:  74;


$$


USA.gov is the U.S. government's official web portal to all federal, state and local government web resources and services.